Find Yaogan 36 05 zu 03 xing

NORAD ID: 57456 Int'l Des: 2023-106 Owner: ZZB Country: CN Constellation: yaogan operational
LEOCIRCULAR

实时位置

正在加载3D地球...

关于 Yaogan 36 05 zu 03 xing

正在加载描述...

即将过境

Passes for default location (London). Set your location on the main map for personalized predictions.

高度历史

Loading altitude history...

两行轨道根数

1 57456U 23106E 26106.26278223 .00002491 00000-0 12223-3 0 9995
2 57456 34.9926 106.7191 0009147 160.7193 199.3867 15.17720883151456
Epoch: Apr 16, 2026 • Age: 8 hours

当前状态

高度 523.1 km
速度 7.60 km/s
星下点 -23.65°S, 11.43°E
发射日期 Jul 26, 2023
运行时间 2.7 years
类型 military

技术详情

分类 Payload
质量 300.00 kg
干质量 300.00 kg
总质量 300.00 kg
长度 2.50 m
直径 2.50 m
跨度 5.00 m
形状 Box + 2 Pan
制造商 DFHZ
阶段状态 In Orbit
所有者/国家 ZZB/CN

Most Searched